Weather History for Brunswick, GA

Change the Weather History Date:

Saturday, June 14, 2014

  Actual Average Record
Temperature  
Mean Temperature 79 °F -  
Max Temperature 89 °F 89 °F 100 °F (1977)
Min Temperature 69 °F 69 °F 59 °F (1979)
Cooling Degree Days 14    
Growing Degree Days 29 (Base 50)    
Moisture  
Dew Point 69 °F    
Average Humidity 71    
Maximum Humidity 94    
Minimum Humidity 46    
Precipitation  
Precipitation 0.00 in - - ()
Sea Level Pressure  
Sea Level Pressure 30.00 in    
Wind  
Wind Speed 0 mph (WSW)    
Max Wind Speed 8 mph    
Max Gust Speed -    
Visibility 10 miles    
Events Thunderstorm    
Averages and records for this station are not official NWS values.
T = Trace of Precipitation, MM = Missing Value Source: NWS Daily Summary

Daily Weather History Graph

Daily Weather History Graph

Search for Another Location

Airport:

Trip Planner

Search our weather history database for the weather conditions in past years. The results will help you decide how hot, cold, wet, or windy it might be!

Date:

Astronomy

Jun. 14, 2014 Rise Set
Actual Time 6:21 AM EDT 8:31 PM EDT
Civil Twilight 5:53 AM EDT 8:59 PM EDT
Nautical Twilight 5:19 AM EDT 9:33 PM EDT
Astronomical Twilight 4:42 AM EDT 10:09 PM EDT
Moon 10:01 PM EDT (6/14) 7:57 AM EDT (6/14)
Length of Visible Light 15h 05m
Length of Day
14h 10m
Full, 97% of the Moon is Illuminated
Jun 14
Full
Jun 19
Last Quarter
Jun 27
New
Jul 5
First Quarter
Jul 12
Full

Hourly Weather History & Observations

Time (EDT) Temp. Heat Index Dew Point Humidity Pressure Visibility Wind Dir Wind Speed Gust Speed Precip Events Conditions
12:10 AM 77.0 °F - 69.8 °F 78% 29.96 in 10.0 mi Calm Calm - N/A   Clear
12:30 AM 77.0 °F - 69.8 °F 78% 29.96 in 10.0 mi Calm Calm - N/A   Clear
12:50 AM 77.0 °F - 69.8 °F 78% 29.97 in 10.0 mi Calm Calm - N/A   Clear
1:10 AM 77.0 °F - 69.8 °F 78% 29.98 in 10.0 mi Calm Calm - N/A   Clear
1:30 AM 75.2 °F - 69.8 °F 83% 29.98 in 10.0 mi Calm Calm - N/A   Clear
1:50 AM 75.2 °F - 69.8 °F 83% 29.98 in 10.0 mi Calm Calm - N/A   Clear
2:10 AM 73.4 °F - 69.8 °F 88% 29.97 in 10.0 mi Calm Calm - N/A   Clear
2:30 AM 73.4 °F - 69.8 °F 88% 29.97 in 10.0 mi Calm Calm - N/A   Clear
2:50 AM 73.4 °F - 68.0 °F 83% 29.97 in 10.0 mi Calm Calm - N/A   Clear
3:10 AM 73.4 °F - 68.0 °F 83% 29.97 in 10.0 mi Calm Calm - N/A   Clear
3:30 AM 73.4 °F - 68.0 °F 83% 29.97 in 10.0 mi Calm Calm - N/A   Clear
3:50 AM 73.4 °F - 68.0 °F 83% 29.98 in 10.0 mi Calm Calm - N/A   Scattered Clouds
4:10 AM 73.4 °F - 68.0 °F 83% 29.98 in 10.0 mi Calm Calm - N/A   Mostly Cloudy
4:30 AM 71.6 °F - 68.0 °F 88% 29.97 in 10.0 mi Calm Calm - N/A   Overcast
4:50 AM 71.6 °F - 68.0 °F 88% 29.98 in 10.0 mi Calm Calm - N/A   Scattered Clouds
5:10 AM 71.6 °F - 68.0 °F 88% 29.97 in 10.0 mi Calm Calm - N/A   Clear
5:30 AM 71.6 °F - 68.0 °F 88% 29.97 in 10.0 mi Calm Calm - N/A   Clear
5:50 AM 71.6 °F - 66.2 °F 83% 29.98 in 10.0 mi Calm Calm - N/A   Clear
6:10 AM 71.6 °F - 66.2 °F 83% 29.98 in 10.0 mi Calm Calm - N/A   Clear
6:30 AM 69.8 °F - 66.2 °F 88% 29.98 in 10.0 mi Calm Calm - N/A   Clear
6:50 AM 71.6 °F - 68.0 °F 88% 29.98 in 10.0 mi Calm Calm - N/A   Clear
7:10 AM 69.8 °F - 68.0 °F 94% 29.99 in 10.0 mi Calm Calm - N/A   Clear
7:30 AM 71.6 °F - 68.0 °F 88% 29.99 in 10.0 mi Calm Calm - N/A   Clear
7:50 AM 73.4 °F - 69.8 °F 88% 29.99 in 10.0 mi Calm Calm - N/A   Clear
8:10 AM 75.2 °F - 68.0 °F 78% 30.00 in 10.0 mi Calm Calm - N/A   Clear
8:30 AM 77.0 °F - 68.0 °F 74% 30.01 in 10.0 mi Calm Calm - N/A   Clear
8:50 AM 77.0 °F - 68.0 °F 74% 30.01 in 10.0 mi Calm Calm - N/A   Clear
9:10 AM 78.8 °F - 68.0 °F 69% 30.02 in 10.0 mi Calm Calm - N/A   Clear
9:30 AM 78.8 °F - 68.0 °F 69% 30.03 in 10.0 mi Calm Calm - N/A   Clear
9:50 AM 80.6 °F 83.2 °F 68.0 °F 65% 30.03 in 10.0 mi Calm Calm - N/A   Clear
10:10 AM 80.6 °F 83.2 °F 68.0 °F 65% 30.04 in 10.0 mi Calm Calm - N/A   Clear
10:30 AM 80.6 °F 83.9 °F 69.8 °F 70% 30.03 in 10.0 mi Calm Calm - N/A   Clear
10:50 AM 82.4 °F 86.3 °F 69.8 °F 66% 30.04 in 10.0 mi Calm Calm - N/A   Clear
11:10 AM 82.4 °F 86.3 °F 69.8 °F 66% 30.04 in 10.0 mi Calm Calm - N/A   Clear
11:30 AM 82.4 °F 86.3 °F 69.8 °F 66% 30.04 in 10.0 mi Calm Calm - N/A   Clear
11:50 AM 82.4 °F 86.3 °F 69.8 °F 66% 30.04 in 10.0 mi Calm Calm - N/A   Scattered Clouds
12:10 PM 84.2 °F 88.4 °F 69.8 °F 62% 30.03 in 10.0 mi Calm Calm - N/A   Scattered Clouds
12:30 PM 86.0 °F 90.4 °F 69.8 °F 58% 30.03 in 10.0 mi Calm Calm - N/A   Clear
12:50 PM 86.0 °F 90.4 °F 69.8 °F 58% 30.03 in 10.0 mi Calm Calm - N/A   Scattered Clouds
1:10 PM 86.0 °F 90.4 °F 69.8 °F 58% 30.02 in 10.0 mi Calm Calm - N/A   Mostly Cloudy
1:30 PM 86.0 °F 89.4 °F 68.0 °F 55% 30.01 in 10.0 mi WNW 3.5 mph - N/A   Scattered Clouds
1:50 PM 86.0 °F 89.4 °F 68.0 °F 55% 30.01 in 10.0 mi SW 5.8 mph - N/A   Scattered Clouds
2:10 PM 86.0 °F 89.4 °F 68.0 °F 55% 30.01 in 10.0 mi SW 8.1 mph - N/A   Scattered Clouds
2:30 PM 87.8 °F 91.4 °F 68.0 °F 52% 30.00 in 10.0 mi West 8.1 mph - N/A   Mostly Cloudy
2:50 PM 87.8 °F 91.4 °F 68.0 °F 52% 29.99 in 10.0 mi WSW 5.8 mph - N/A   Scattered Clouds
3:10 PM 87.8 °F 91.4 °F 68.0 °F 52% 29.98 in 10.0 mi Calm Calm - N/A   Scattered Clouds
3:30 PM 89.6 °F 93.4 °F 68.0 °F 49% 29.98 in 10.0 mi Calm Calm - N/A   Scattered Clouds
3:50 PM 89.6 °F 92.2 °F 66.2 °F 46% 29.98 in 10.0 mi Calm Calm - N/A   Scattered Clouds
4:10 PM 87.8 °F 91.4 °F 68.0 °F 52% 29.98 in 10.0 mi Calm Calm - N/A   Scattered Clouds
4:30 PM 89.6 °F 93.4 °F 68.0 °F 49% 29.97 in 10.0 mi SW 6.9 mph - N/A   Mostly Cloudy
4:50 PM 87.8 °F 90.4 °F 66.2 °F 49% 29.97 in 10.0 mi Calm Calm - N/A   Mostly Cloudy
5:10 PM 89.6 °F 93.4 °F 68.0 °F 49% 29.97 in 10.0 mi Calm Calm - N/A   Overcast
5:30 PM 87.8 °F 90.4 °F 66.2 °F 49% 29.97 in 10.0 mi Calm Calm - N/A   Overcast
5:50 PM 86.0 °F 93.4 °F 73.4 °F 66% 29.97 in 10.0 mi Calm Calm - N/A   Overcast
6:10 PM 84.2 °F 89.6 °F 71.6 °F 66% 29.98 in 10.0 mi Calm Calm - N/A   Overcast
6:30 PM 84.2 °F 89.6 °F 71.6 °F 66% 29.99 in 10.0 mi Calm Calm - N/A   Mostly Cloudy
6:50 PM 84.2 °F 88.4 °F 69.8 °F 62% 29.99 in 10.0 mi Calm Calm - N/A Thunderstorm Scattered Clouds
7:10 PM 84.2 °F 88.4 °F 69.8 °F 62% 30.00 in 10.0 mi Calm Calm - N/A Thunderstorm Mostly Cloudy
7:30 PM 82.4 °F 87.2 °F 71.6 °F 70% 30.00 in 10.0 mi Calm Calm - N/A Thunderstorm Mostly Cloudy
7:50 PM 80.6 °F 84.6 °F 71.6 °F 74% 30.00 in 10.0 mi Calm Calm - N/A Thunderstorm Mostly Cloudy
8:10 PM 80.6 °F 84.6 °F 71.6 °F 74% 30.01 in 10.0 mi Calm Calm - N/A Thunderstorm Thunderstorm
8:30 PM 80.6 °F 83.9 °F 69.8 °F 70% 30.02 in 10.0 mi South 8.1 mph - N/A Thunderstorm Scattered Clouds
8:50 PM 80.6 °F 83.9 °F 69.8 °F 70% 30.02 in 10.0 mi Calm Calm - N/A Thunderstorm Scattered Clouds
9:10 PM 80.6 °F 83.2 °F 68.0 °F 65% 30.02 in 10.0 mi Calm Calm - N/A Thunderstorm Scattered Clouds
9:30 PM 78.8 °F - 69.8 °F 74% 30.04 in 10.0 mi Calm Calm - N/A Thunderstorm Scattered Clouds
9:50 PM 78.8 °F - 69.8 °F 74% 30.04 in 10.0 mi Calm Calm - N/A Thunderstorm Thunderstorm
10:10 PM 75.2 °F - 69.8 °F 83% 30.04 in 10.0 mi Calm Calm - N/A Thunderstorm Clear
10:30 PM 73.4 °F - 69.8 °F 88% 30.05 in 10.0 mi Calm Calm - N/A   Clear
10:50 PM 77.0 °F - 69.8 °F 78% 30.06 in 10.0 mi Calm Calm - N/A   Clear
11:10 PM 77.0 °F - 69.8 °F 78% 30.06 in 10.0 mi Calm Calm - N/A   Scattered Clouds
11:30 PM 77.0 °F - 69.8 °F 78% 30.06 in 10.0 mi Calm Calm - N/A   Clear
11:50 PM 73.4 °F - 69.8 °F 88% 30.06 in 10.0 mi Calm Calm - N/A   Clear